Location: Cambridge (historical)
(38.6883°N, 119.0140°W)
Time: 17:16:13
(UTC+00:00)

CZ-4B R/B - Pass Details

Date: 29 October 2020
Orbit: 389 x 462 km, 97.6° (Epoch: 22 November)

Event Time Altitude Azimuth Distance (km) Brightness Sun altitude
Rises 12:04:07 0° 142° (SE) 2,481 5.6 -27.1°
Reaches altitude 10° 12:06:22 10° 129° (SE) 1,609 4.8 -26.7°
Maximum altitude 12:09:17 26° 72° (ENE) 945 3.6 -26.1°
Enters shadow 12:11:55 12° 17° (NNE) 1,504 4.2 -25.6°
